Home   Weather   Bornheim (Rheinland)   Past weeks

Flag for Germany Past Weather in Bornheim (Rheinland), North Rhine-Westphalia, Germany — Yesterday and Last 2 Weeks

Now
64 °F

Passing clouds.


Feels Like: 64 °F
Forecast: 50 / 71 °F
Wind: 2 mph from East

Location: Aachen-Orsbach

Current Time: Sep 27, 2016 at 12:24:39 PM

Latest Report: Sep 27, 2016 at 12:00 PM


Visibility: 22 mi

Pressure: 30.31 "Hg

Humidity: 59%

Dew Point: 49 °F

Location of Bornheim (Rheinland)Location

Past Weather in Bornheim (Rheinland) — Graph

°F

Bornheim (Rheinland) Temperature Yesterday

Maximum temperature yesterday: 63 °F (at 3:00 PM)
Minimum temperature yesterday: 49 °F (at 7:00 AM)
Average temperature yesterday: 57 °F

High & Low Weather Summary for the Past Weeks

 TemperatureHumidityPressure
High88 °F (Sep 13, 6:00 PM)98% (Sep 18, 3:00 AM)30.32 "Hg (Sep 18, 3:00 AM)
Low49 °F (Sep 27, 7:00 AM)30% (Sep 13, 6:00 PM)29.79 "Hg (Sep 15, 12:00 PM)
Average63 °F70%30.06 "Hg
* Reported Sep 12 10:00 AM — Sep 27 10:00 AM, Bornheim (Rheinland), Weather by CustomWeather, © 2016

Note: Actual official high and low records may vary slightly from our data, if they occured in-between our weather recording intervals... More about our weather records

Advertising

Bornheim (Rheinland) Weather History for the Previous 24 Hours

Scroll right to see more
 ConditionsComfort  
Time TempWeatherWind HumidityBarometerVisibility
10:00 AM
Tue, Sep 27
58 °FPassing clouds.1 mph75%30.31 "Hg12 mi
9:00 AM53 °FPassing clouds.1 mph87%30.32 "Hg11 mi
7:00 AM49 °FPassing clouds.2 mph94%30.30 "Hg11 mi
6:00 AM51 °FPassing clouds.2 mph94%30.28 "Hg16 mi
4:00 AM50 °FClear.1 mph89%30.28 "Hg5 mi
3:00 AM53 °FOvercast.2 mph85%30.27 "Hg12 mi
1:00 AM53 °FOvercast.1 mph87%30.26 "Hg15 mi
12:00 AM54 °FOvercast.2 mph77%30.26 "Hg19 mi
10:00 PM
Mon, Sep 26
56 °FOvercast.1 mph74%30.26 "Hg19 mi
9:00 PM57 °FOvercast.1 mph72%30.25 "Hg19 mi
8:00 PMN/APassing clouds.6 mphN/AN/A37 mi
7:00 PM57 °FOvercast.2 mph70%30.24 "Hg22 mi
6:00 PM60 °FOvercast.2 mph62%30.22 "Hg25 mi
4:00 PM63 °FPartly sunny.3 mph51%30.22 "Hg37 mi
3:00 PM63 °FPartly sunny.3 mph52%30.22 "Hg37 mi
1:00 PM62 °FPartly sunny.1 mph59%30.24 "Hg22 mi
12:00 PM59 °FPartly sunny.2 mph69%30.24 "Hg19 mi
Weather by CustomWeather, © 2016

See weather overviewHow to use our weather pages